H1 CPF 2 NER 2021 11 27 9 331 01 glonass142 H2 2001801 9142 45358 2021 11 27 0 0 0 2021 11 30 23 45 0 900 1 1 0 0 0 1 H9 10 0 59545 0.00000 0 -15842285.584 8127434.070 -18233719.786 10 0 59545 900.00000 0 -14501309.254 6174765.269 -20026654.281 10 0 59545 1800.00000 0 -13214144.349 3955524.603 -21429584.285 10 0 59545 2700.00000 0 -12032501.472 1513914.190 -22415212.067 10 0 59545 3600.00000 0 -11000050.959 -1096219.617 -22964387.148 10 0 59545 4500.00000 0 -10150620.163 -3813386.858 -23066477.661 10 0 59545 5400.00000 0 -9506825.868 -6570778.643 -22719573.497 10 0 59545 6300.00000 0 -9079198.859 -9298819.045 -21930517.657 10 0 59545 7200.00000 0 -8865836.652 -11927837.778 -20714765.665 10 0 59545 8100.00000 0 -8852597.930 -14390752.383 -19096076.297 10 0 59545 9000.00000 0 -9013829.157 -16625648.403 -17106040.144 10 0 59545 9900.00000 0 -9313591.450 -18578150.295 -14783455.706 10 0 59545 10800.00000 0 -9707334.555 -20203484.908 -12173565.707 10 0 59545 11700.00000 0 -10143946.015 -21468152.349 -9327168.958 10 0 59545 12600.00000 0 -10568087.892 -22351135.573 -6299625.654 10 0 59545 13500.00000 0 -10922721.385 -22844599.623 -3149775.940 10 0 59545 14400.00000 0 -11151712.012 -22954052.912 61206.751 10 0 59545 15300.00000 0 -11202404.816 -22697965.458 3271004.844 10 0 59545 16200.00000 0 -11028060.654 -22106861.857 6417364.868 10 0 59545 17100.00000 0 -10590050.651 -21221928.550 9439301.329 10 0 59545 18000.00000 0 -9859716.432 -20093195.114 12278272.862 10 0 59545 18900.00000 0 -8819817.881 -18777366.792 14879308.352 10 0 59545 19800.00000 0 -7465507.592 -17335399.589 17192061.856 10 0 59545 20700.00000 0 -5804790.990 -15829919.632 19171776.769 10 0 59545 21600.00000 0 -3858452.442 -14322594.393 20780141.650 10 0 59545 22500.00000 0 -1659449.665 -12871565.006 21986022.333 10 0 59545 23400.00000 0 748199.345 -11529046.044 22766057.190 10 0 59545 24300.00000 0 3310992.000 -10339191.843 23105104.998 10 0 59545 25200.00000 0 5967915.642 -9336317.414 22996537.390 10 0 59545 26100.00000 0 8652740.736 -8543547.282 22442370.488 10 0 59545 27000.00000 0 11296539.557 -7971947.999 21453233.032 10 0 59545 27900.00000 0 13830327.742 -7620180.237 20048171.025 10 0 59545 28800.00000 0 16187720.619 -7474685.041 18254291.722 10 0 59545 29700.00000 0 18307495.306 -7510396.743 16106252.608 10 0 59545 30600.00000 0 20135952.911 -7691953.179 13645603.822 10 0 59545 31500.00000 0 21628982.757 -7975353.037 10919995.397 10 0 59545 32400.00000 0 22753742.555 -8309991.165 7982263.380 10 0 59545 33300.00000 0 23489883.840 -8640986.482 4889411.532 10 0 59545 34200.00000 0 23830270.710 -8911704.333 1701507.806 10 0 59545 35100.00000 0 23781160.924 -9066366.372 -1519483.215 10 0 59545 36000.00000 0 23361841.012 -9052636.832 -4710909.014 10 0 59545 36900.00000 0 22603730.133 -8824074.566 -7810654.813 10 0 59545 37800.00000 0 21548990.060 -8342345.524 -10758361.497 10 0 59545 38700.00000 0 20248699.811 -7579100.233 -13496611.060 10 0 59545 39600.00000 0 18760672.077 -6517434.974 -15972055.250 10 0 59545 40500.00000 0 17147004.006 -5152872.967 -18136464.456 10 0 59545 41400.00000 0 15471466.155 -3493822.323 -19947675.468 10 0 59545 42300.00000 0 13796840.318 -1561489.864 -21370418.959 10 0 59545 43200.00000 0 12182318.918 610746.907 -22377010.177 10 0 59545 44100.00000 0 10681075.778 2978484.434 -22947889.256 10 0 59545 45000.00000 0 9338110.640 5487907.007 -23072000.669 10 0 59545 45900.00000 0 8188457.789 8077802.930 -22747004.728 10 0 59545 46800.00000 0 7255833.518 10681898.932 -21979317.393 10 0 59545 47700.00000 0 6551778.374 13231415.425 -20783978.067 10 0 59545 48600.00000 0 6075328.984 15657736.017 -19184348.485 10 0 59545 49500.00000 0 5813231.767 17895080.045 -17211649.018 10 0 59545 50400.00000 0 5740687.926 19883066.698 -14904341.977 10 0 59545 51300.00000 0 5822596.618 21569064.120 -12307374.432 10 0 59545 52200.00000 0 6015242.227 22910225.979 -9471295.748 10 0 59545 53100.00000 0 6268353.046 23875131.176 -6451267.644 10 0 59545 54000.00000 0 6527443.090 24444959.216 -3305986.479 10 0 59545 54900.00000 0 6736337.072 24614153.367 -96539.232 10 0 59545 55800.00000 0 6839771.075 24390545.221 3114784.136 10 0 59545 56700.00000 0 6785958.555 23794936.985 6265698.575 10 0 59545 57600.00000 0 6529013.085 22860160.398 9295128.597 10 0 59545 58500.00000 0 6031125.566 21629652.976 12144386.339 10 0 59545 59400.00000 0 5264404.229 20155612.217 14758300.644 10 0 59545 60300.00000 0 4212300.017 18496805.580 17086275.951 10 0 59545 61200.00000 0 2870557.461 16716128.085 19083261.310 10 0 59545 62100.00000 0 1247650.890 14878009.325 20710611.871 10 0 59545 63000.00000 0 -635312.881 13045777.505 21936827.336 10 0 59545 63900.00000 0 -2745222.176 11279089.551 22738154.119 10 0 59545 64800.00000 0 -5038093.544 9631533.235 23099040.597 10 0 59545 65700.00000 0 -7460664.765 8148499.979 23012437.240 10 0 59545 66600.00000 0 -9952383.304 6865415.846 22479936.158 10 0 59545 67500.00000 0 -12447709.565 5806403.396 21511747.219 10 0 59545 68400.00000 0 -14878641.244 4983429.506 20126510.639 10 0 59545 69300.00000 0 -17177355.572 4395974.325 18350948.758 10 0 59545 70200.00000 0 -19278861.051 4031235.134 16219362.467 10 0 59545 71100.00000 0 -21123549.417 3864856.718 13772980.659 10 0 59545 72000.00000 0 -22659541.877 3862158.015 11059173.852 10 0 59545 72900.00000 0 -23844731.837 3979803.876 8130545.986 10 0 59545 73800.00000 0 -24648438.271 4167851.863 5043920.882 10 0 59545 74700.00000 0 -25052599.721 4372087.878 1859242.490 10 0 59545 75600.00000 0 -25052457.885 4536551.717 -1361590.024 10 0 59545 76500.00000 0 -24656701.068 4606145.174 -4555929.506 10 0 59545 77400.00000 0 -23887060.467 4529211.284 -7661606.242 10 0 59545 78300.00000 0 -22777375.593 4259974.157 -10618146.883 10 0 59545 79200.00000 0 -21372167.673 3760734.431 -13367962.084 10 0 59545 80100.00000 0 -19724781.038 3003725.620 -15857478.517 10 0 59545 81000.00000 0 -17895170.896 1972550.969 -18038192.182 10 0 59545 81900.00000 0 -15947430.993 663138.257 -19867621.615 10 0 59545 82800.00000 0 -13947165.728 -915829.368 -21310141.651 10 0 59545 83700.00000 0 -11958817.689 -2743026.129 -22337681.179 10 0 59545 84600.00000 0 -10043063.279 -4785136.415 -22930271.098 10 0 59545 85500.00000 0 -8254385.970 -6998021.035 -23076431.868 10 0 59546 0.00000 0 -6638929.004 -9328348.466 -22773393.448 10 0 59546 900.00000 0 -5232716.240 -11715624.445 -22027143.442 10 0 59546 1800.00000 0 -4060317.090 -14094531.936 -20852303.508 10 0 59546 2700.00000 0 -3134007.365 -16397487.940 -19271836.374 10 0 59546 3600.00000 0 -2453461.917 -18557307.160 -17316589.977 10 0 59546 4500.00000 0 -2005989.330 -20509862.462 -15024688.036 10 0 59546 5400.00000 0 -1767296.981 -22196630.866 -12440779.448 10 0 59546 6300.00000 0 -1702752.316 -23567018.946 -9615161.589 10 0 59546 7200.00000 0 -1769085.333 -24580370.783 -6602795.167 10 0 59546 8100.00000 0 -1916458.758 -25207575.205 -3462230.301 10 0 59546 9000.00000 0 -2090817.054 -25432205.908 -254465.156 10 0 59546 9900.00000 0 -2236413.971 -25251147.795 2958240.168 10 0 59546 10800.00000 0 -2298411.022 -24674684.499 6113571.178 10 0 59546 11700.00000 0 -2225436.687 -23726044.640 9150364.437 10 0 59546 12600.00000 0 -1971998.115 -22440426.918 12009787.533 10 0 59546 13500.00000 0 -1500643.607 -20863545.790 14636471.120 10 0 59546 14400.00000 0 -783784.893 -19049759.139 16979571.744 10 0 59546 15300.00000 0 194897.351 -17059856.433 18993745.679 10 0 59546 16200.00000 0 1439523.838 -14958599.540 20640016.036 10 0 59546 17100.00000 0 2941602.155 -12812118.095 21886517.517 10 0 59546 18000.00000 0 4680145.364 -10685267.083 22709105.467 10 0 59546 18900.00000 0 6622319.805 -8639055.362 23091818.461 10 0 59546 19800.00000 0 8724596.510 -6728250.778 23027186.129 10 0 59546 20700.00000 0 10934359.884 -4999260.130 22516376.605 10 0 59546 21600.00000 0 13191908.622 -3488370.967 21569180.645 10 0 59546 22500.00000 0 15432767.575 -2220427.305 20203832.166 10 0 59546 23400.00000 0 17590216.122 -1207993.804 18446667.798 10 0 59546 24300.00000 0 19597929.434 -451042.805 16331630.767 10 0 59546 25200.00000 0 21392623.753 62822.807 13899627.328 10 0 59546 26100.00000 0 22916595.990 357620.119 11197746.789 10 0 59546 27000.00000 0 24120051.769 467741.334 8278358.941 10 0 59546 27900.00000 0 24963124.168 436265.680 5198105.301 10 0 59546 28800.00000 0 25417497.803 312899.089 2016803.140 10 0 59546 29700.00000 0 25467569.007 151628.761 -1203716.706 10 0 59546 30600.00000 0 25111092.170 8192.244 -4400815.519 10 0 59546 31500.00000 0 24359283.758 -62531.119 -7512271.775 10 0 59546 32400.00000 0 23236378.552 -9094.709 -10477500.947 10 0 59546 33300.00000 0 21778655.920 214085.334 -13238745.247 10 0 59546 34200.00000 0 20032976.554 644549.135 -15742208.924 10 0 59546 35100.00000 0 18054891.040 1309955.209 -17939115.974 10 0 59546 36000.00000 0 15906399.837 2226665.166 -19786668.750 10 0 59546 36900.00000 0 13653459.132 3398812.386 -21248888.042 10 0 59546 37800.00000 0 11363337.635 4817895.399 -22297317.851 10 0 59546 38700.00000 0 9101935.519 6462914.318 -22911581.006 10 0 59546 39600.00000 0 6931178.170 8301045.477 -23079774.778 10 0 59546 40500.00000 0 4906593.816 10288826.587 -22798699.122 10 0 59546 41400.00000 0 3075176.068 12373803.139 -22073913.432 10 0 59546 42300.00000 0 1473620.189 14496567.137 -20919621.191 10 0 59546 43200.00000 0 127005.727 16593102.863 -19358385.257 10 0 59546 44100.00000 0 -952020.776 18597341.369 -17420679.807 10 0 59546 45000.00000 0 -1763530.497 20443816.652 -15144288.209 10 0 59546 45900.00000 0 -2320054.570 22070312.260 -12573559.021 10 0 59546 46800.00000 0 -2645796.791 23420387.564 -9758535.092 10 0 59546 47700.00000 0 -2775352.017 24445678.060 -6753973.295 10 0 59546 48600.00000 0 -2751986.263 25107873.694 -3618274.448 10 0 59546 49500.00000 0 -2625552.789 25380292.897 -412344.695 10 0 59546 50400.00000 0 -2450133.586 25248987.058 2801588.998 10 0 59546 51300.00000 0 -2281506.965 24713330.062 5961185.937 10 0 59546 52200.00000 0 -2174548.930 23786069.112 9005197.871 10 0 59546 53100.00000 0 -2180678.406 22492835.620 11874650.793 10 0 59546 54000.00000 0 -2345454.210 20871137.418 14513979.893 10 0 59546 54900.00000 0 -2706424.949 18968874.945 16872096.285 10 0 59546 55800.00000 0 -3291322.125 16842443.609 18903365.650 10 0 59546 56700.00000 0 -4116672.286 14554501.332 20568480.954 10 0 59546 57600.00000 0 -5186886.485 12171493.680 21835213.490 10 0 59546 58500.00000 0 -6493865.492 9761038.716 22679028.804 10 0 59546 59400.00000 0 -8017137.969 7389279.079 23083556.577 10 0 59546 60300.00000 0 -9724526.890 5118309.822 23040906.120 10 0 59546 61200.00000 0 -11573317.783 3003787.485 22551821.668 10 0 59546 62100.00000 0 -13511881.786 1092818.206 21625674.447 10 0 59546 63000.00000 0 -15481687.705 -577788.612 20280291.140 10 0 59546 63900.00000 0 -17419621.028 -1982829.344 18541621.191 10 0 59546 64800.00000 0 -19260514.861 -3109524.131 16443248.157 10 0 59546 65700.00000 0 -20939788.542 -3957810.030 14025753.174 10 0 59546 66600.00000 0 -22396084.555 -4540097.144 11335941.435 10 0 59546 67500.00000 0 -23573793.842 -4880497.898 8425945.364 10 0 59546 68400.00000 0 -24425363.581 -5013561.700 5352220.738 10 0 59546 69300.00000 0 -24913289.902 -4982568.087 2174454.615 10 0 59546 70200.00000 0 -25011710.820 -4837450.428 -1045594.052 10 0 59546 71100.00000 0 -24707531.012 -4632438.205 -4245298.465 10 0 59546 72000.00000 0 -24001029.644 -4423518.171 -7362388.650 10 0 59546 72900.00000 0 -22905924.244 -4265822.854 -10336172.091 10 0 59546 73800.00000 0 -21448886.634 -4211058.211 -13108725.528 10 0 59546 74700.00000 0 -19668530.377 -4305080.844 -15626033.475 10 0 59546 75600.00000 0 -17613911.679 -4585728.926 -17839050.266 10 0 59546 76500.00000 0 -15342606.417 -5081000.235 -19704663.986 10 0 59546 77400.00000 0 -12918444.104 -5807655.796 -21186542.775 10 0 59546 78300.00000 0 -10408993.926 -6770309.464 -22255846.589 10 0 59546 79200.00000 0 -7882908.470 -7961042.975 -22891790.417 10 0 59546 80100.00000 0 -5407236.522 -9359563.521 -23082047.974 10 0 59546 81000.00000 0 -3044817.363 -10933897.844 -22822988.329 10 0 59546 81900.00000 0 -851865.201 -12641594.034 -22119741.178 10 0 59546 82800.00000 0 1124155.789 -14431380.665 -20986089.977 10 0 59546 83700.00000 0 2846277.995 -16245213.608 -19444195.498 10 0 59546 84600.00000 0 4289326.783 -18020624.531 -17524155.674 10 0 59546 85500.00000 0 5440714.107 -19693272.293 -15263410.826 10 0 59547 0.00000 0 6300698.039 -21199589.919 -12706006.586 10 0 59547 900.00000 0 6882099.852 -22479416.754 -9901727.913 10 0 59547 1800.00000 0 7209491.652 -23478503.262 -6905125.153 10 0 59547 2700.00000 0 7317892.472 -24150786.235 -3774446.947 10 0 59547 3600.00000 0 7251028.519 -24460337.077 -570504.644 10 0 59547 4500.00000 0 7059233.205 -24382902.707 2644510.554 10 0 59547 5400.00000 0 6797076.868 -23906974.857 5808234.219 10 0 59547 6300.00000 0 6520827.236 -23034343.593 8859335.544 10 0 59547 7200.00000 0 6285848.406 -21780112.518 11738700.972 10 0 59547 8100.00000 0 6144048.321 -20172175.652 14390572.029 10 0 59547 9000.00000 0 6141482.273 -18250178.227 16763615.947 10 0 59547 9900.00000 0 6316213.075 -16064004.973 18811909.090 10 0 59547 10800.00000 0 6696517.590 -13671858.754 20495815.266 10 0 59547 11700.00000 0 7299514.674 -11138008.952 21782743.059 10 0 59547 12600.00000 0 8130272.020 -8530302.397 22647768.607 10 0 59547 13500.00000 0 9181429.556 -5917538.983 23074112.821 10 0 59547 14400.00000 0 10433355.794 -3366819.413 23053464.534 10 0 59547 15300.00000 0 11854831.570 -940973.620 22586143.675 10 0 59547 16200.00000 0 13404233.994 1303825.036 21681101.316 10 0 59547 17100.00000 0 15031172.790 3320162.234 20355756.073 10 0 59547 18000.00000 0 16678512.375 5071115.574 18635669.165 10 0 59547 18900.00000 0 18284696.902 6531546.736 16554063.248 10 0 59547 19800.00000 0 19786282.513 7688899.664 14151192.889 10 0 59547 20700.00000 0 21120571.899 8543471.614 11473577.496 10 0 59547 21600.00000 0 22228241.382 9108145.848 8573110.211 10 0 59547 22500.00000 0 23055850.382 9407597.035 5506058.914 10 0 59547 23400.00000 0 23558127.325 9477002.617 2331978.063 10 0 59547 24300.00000 0 23699934.934 9360314.420 -887447.846 10 0 59547 25200.00000 0 23457830.781 9108163.591 -4089606.632 10 0 59547 26100.00000 0 22821155.815 8775487.831 -7212182.607 10 0 59547 27000.00000 0 21792603.340 8418982.047 -10194377.944 10 0 59547 27900.00000 0 20388242.882 8094481.352 -12978106.455 10 0 59547 28800.00000 0 18636996.597 7854388.472 -15509135.275 10 0 59547 29700.00000 0 16579589.193 7745255.845 -17738151.197 10 0 59547 30600.00000 0 14267014.730 7805626.185 -19621729.936 10 0 59547 31500.00000 0 11758584.358 8064224.166 -21123188.648 10 0 59547 32400.00000 0 9119636.643 8538576.860 -22213304.695 10 0 59547 33300.00000 0 6419006.429 9234122.140 -22870886.459 10 0 59547 34200.00000 0 3726358.245 10143843.391 -23083185.085 10 0 59547 35100.00000 0 1109495.696 11248446.372 -22846139.439 10 0 59547 36000.00000 0 -1368240.958 12517071.026 -22164449.843 10 0 59547 36900.00000 0 -3650380.729 13908508.269 -21051479.633 10 0 59547 37800.00000 0 -5689431.670 15372870.422 -19528986.948 10 0 59547 38700.00000 0 -7448607.504 16853644.808 -17626692.451 10 0 59547 39600.00000 0 -8903100.308 18290043.794 -15381691.936 10 0 59547 40500.00000 0 -10040847.848 19619552.175 -12837725.725 10 0 59547 41400.00000 0 -10862765.443 20780564.482 -10044319.558 10 0 59547 42300.00000 0 -11382434.745 21715001.092 -7055814.251 10 0 59547 43200.00000 0 -11625264.786 22370793.042 -3930303.497 10 0 59547 44100.00000 0 -11627162.699 22704131.115 -728500.924 10 0 59547 45000.00000 0 -11432772.024 22681384.819 2487441.045 10 0 59547 45900.00000 0 -11093354.496 22280610.969 5655137.281 10 0 59547 46800.00000 0 -10664405.924 21492588.925 8713177.423 10 0 59547 47700.00000 0 -10203107.521 20321339.524 11602311.273 10 0 59547 48600.00000 0 -9765720.613 18784106.358 14266589.481 10 0 59547 49500.00000 0 -9405034.533 16910800.430 16654438.006 10 0 59547 50400.00000 0 -9167974.920 14742931.472 18719646.309 10 0 59547 51300.00000 0 -9093472.544 12332070.239 20422251.221 10 0 59547 52200.00000 0 -9210681.726 9737905.177 21729300.534 10 0 59547 53100.00000 0 -9537622.663 7025973.429 22615482.601 10 0 59547 54000.00000 0 -10080304.393 4265159.092 23063610.851 10 0 59547 54900.00000 0 -10832365.261 1525061.011 23064954.540 10 0 59547 55800.00000 0 -11775246.414 -1126662.323 22619409.781 10 0 59547 56700.00000 0 -12878891.989 -3626862.396 21735507.501 10 0 59547 57600.00000 0 -14102947.945 -5919279.848 20430257.748 10 0 59547 58500.00000 0 -15398410.835 -7956635.729 18728832.497 10 0 59547 59400.00000 0 -16709659.079 -9702349.041 16664091.951 10 0 59547 60300.00000 0 -17976783.131 -11131809.806 14275962.059 10 0 59547 61200.00000 0 -19138118.023 -12233154.893 11610673.935 10 0 59547 62100.00000 0 -20132872.824 -13007514.321 8719878.558 10 0 59547 63000.00000 0 -20903746.811 -13468717.624 5659652.722 10 0 59547 63900.00000 0 -21399422.014 -13642472.365 2489414.895 10 0 59547 64800.00000 0 -21576826.407 -13565049.253 -729228.397 10 0 59547 65700.00000 0 -21403071.089 -13281529.276 -3933683.150 10 0 59547 66600.00000 0 -20856978.181 -12843687.048 -7061591.504 10 0 59547 67500.00000 0 -19930133.242 -12307600.368 -10052053.791 10 0 59547 68400.00000 0 -18627415.992 -11731087.881 -12846824.217 10 0 59547 69300.00000 0 -16966985.345 -11171084.312 -15391455.649 10 0 59547 70200.00000 0 -14979717.926 -10681065.508 -17636370.148 10 0 59547 71100.00000 0 -12708122.531 -10308633.510 -19537833.469 10 0 59547 72000.00000 0 -10204775.394 -10093364.931 -21058813.717 10 0 59547 72900.00000 0 -7530341.379 -10065014.633 -22169707.021 10 0 59547 73800.00000 0 -4751263.695 -10242151.386 -22848915.901 10 0 59547 74700.00000 0 -1937218.751 -10631283.624 -23083269.051 10 0 59547 75600.00000 0 841557.604 -11226512.447 -22868274.652 10 0 59547 76500.00000 0 3516960.997 -12009726.547 -22208202.629 10 0 59547 77400.00000 0 6025614.524 -12951330.595 -21115994.695 10 0 59547 78300.00000 0 8311262.116 -14011476.065 -19613004.445 10 0 59547 79200.00000 0 10326860.259 -15141742.172 -17728573.020 10 0 59547 80100.00000 0 12036281.836 -16287195.579 -15499449.130 10 0 59547 81000.00000 0 13415562.424 -17388741.572 -12969065.215 10 0 59547 81900.00000 0 14453638.709 -18385667.162 -10186684.291 10 0 59547 82800.00000 0 15152550.010 -19218268.565 -7206434.658 10 0 59547 83700.00000 0 15527096.638 -19830452.050 -4086251.743 10 0 59547 84600.00000 0 15603971.591 -20172198.448 -886748.094 10 0 59547 85500.00000 0 15420404.070 -20201787.509 2329965.942 10 0 59548 0.00000 0 15022373.813 -19887688.645 5501487.392 10 0 59548 900.00000 0 14462472.678 -19210038.534 8566329.819 10 0 59548 1800.00000 0 13797505.200 -18161644.266 11465108.680 10 0 59548 2700.00000 0 13085929.144 -16748469.635 14141685.968 10 0 59548 3600.00000 0 12385244.506 -14989584.661 16544248.179 10 0 59548 4500.00000 0 11749440.488 -12916580.320 18626299.268 10 0 59548 5400.00000 0 11226607.298 -10572472.600 20347550.067 10 0 59548 6300.00000 0 10856812.449 -8010140.891 21674688.148 10 0 59548 7200.00000 0 10670329.940 -5290364.742 22582014.290 10 0 59548 8100.00000 0 10686295.973 -2479539.253 23051934.289 10 0 59548 9000.00000 0 10911847.151 352837.698 23075297.380 10 0 59548 9900.00000 0 11341777.220 3136803.837 22651575.124 10 0 59548 10800.00000 0 11958727.069 5804588.935 21788877.334 10 0 59548 11700.00000 0 12733900.810 8293180.898 20503804.308 10 0 59548 12600.00000 0 13628278.970 10546696.470 18821137.414 10 0 59548 13500.00000 0 14594279.264 12518459.350 16773372.848 10 0 59548 14400.00000 0 15577796.603 14172700.142 14400106.219 10 0 59548 15300.00000 0 16520537.882 15485807.736 11747278.449 10 0 59548 16200.00000 0 17362554.327 16447080.020 8866296.260 10 0 59548 17100.00000 0 18044865.352 17058942.440 5813043.104 10 0 59548 18000.00000 0 18512063.322 17336624.874 2646799.030 10 0 59548 18900.00000 0 18714788.871 17307310.172 -570909.952 10 0 59548 19800.00000 0 18611971.215 17008789.988 -3777510.620 10 0 59548 20700.00000 0 18172737.423 16487684.562 -6910605.520 10 0 59548 21600.00000 0 17377908.247 15797301.892 -9909195.627 10 0 59548 22500.00000 0 16221015.452 14995227.291 -12714877.861 10 0 59548 23400.00000 0 14708795.868 14140746.033 -15272992.922 10 0 59548 24300.00000 0 12861139.601 13292209.042 -17533700.023 10 0 59548 25200.00000 0 10710493.070 12504454.072 -19452956.616 10 0 59548 26100.00000 0 8300740.868 11826392.391 -20993383.202 10 0 59548 27000.00000 0 5685612.489 11298863.844 -22124995.944 10 0 59548 27900.00000 0 2926680.137 10952851.499 -22825792.587 10 0 59548 28800.00000 0 91031.125 10808131.631 -23082180.253 10 0 59548 29700.00000 0 -2751288.057 10872416.076 -22889237.067 10 0 59548 30600.00000 0 -5529949.509 11141022.901 -22250802.857 10 0 59548 31500.00000 0 -8177031.890 11597088.845 -21179397.633 10 0 59548 32400.00000 0 -10629606.952 12212313.910 -19695969.932 10 0 59548 33300.00000 0 -12832117.333 12948205.975 -17829480.406 10 0 59548 34200.00000 0 -14738447.214 13757772.108 -15616329.289 10 0 59548 35100.00000 0 -16313600.604 14587584.439 -13099639.359 10 0 59548 36000.00000 0 -17534918.543 15380132.706 -10328408.817 10 0 59548 36900.00000 0 -18392785.985 16076363.521 -7356551.118 10 0 59548 37800.00000 0 -18890800.651 16618298.713 -4241840.908 10 0 59548 38700.00000 0 -19045398.794 16951621.866 -1044787.041 10 0 59548 39600.00000 0 -18884955.516 17028123.759 2172544.909 10 0 59548 40500.00000 0 -18448399.352 16807903.529 5347737.441 10 0 59548 41400.00000 0 -17783400.978 16261232.866 8419229.652 10 0 59548 42300.00000 0 -16944213.518 15370004.975 11327505.994 10 0 59548 43200.00000 0 -15989256.149 14128707.500 14016242.497 10 0 59548 44100.00000 0 -14978543.042 12544878.660 16433388.815 10 0 59548 45000.00000 0 -13971065.667 10639027.389 18532165.852 10 0 59548 45900.00000 0 -13022237.966 8444020.483 20271960.714 10 0 59548 46800.00000 0 -12181510.908 6003961.608 21619102.775 10 0 59548 47700.00000 0 -11490255.532 3372607.940 22547506.958 10 0 59548 48600.00000 0 -10980002.306 611388.935 23039172.818 10 0 59548 49500.00000 0 -10671109.685 -2212892.140 23084530.594 10 0 59548 50400.00000 0 -10571917.132 -5030580.254 22682627.925 10 0 59548 51300.00000 0 -10678417.807 -7771811.551 21841153.720 10 0 59548 52200.00000 0 -10974464.862 -10369169.466 20576298.302 10 0 59548 53100.00000 0 -11432503.239 -12760245.328 18912451.738 10 0 59548 54000.00000 0 -12014797.174 -14889998.566 16881745.085 10 0 59548 54900.00000 0 -12675102.910 -16712819.349 14523442.028 10 0 59548 55800.00000 0 -13360717.422 -18194208.263 11883191.306 10 0 59548 56700.00000 0 -14014817.828 -19312003.143 9012153.033 10 0 59548 57600.00000 0 -14578993.596 -20057101.651 5966014.653 10 0 59548 58500.00000 0 -14995864.872 -20433648.862 2803914.893 10 0 59548 59400.00000 0 -15211676.127 -20458681.578 -412703.850 10 0 59548 60300.00000 0 -15178754.653 -20161243.877 -3621292.365 10 0 59548 61200.00000 0 -14857728.724 -19581010.852 -6759416.935 10 0 59548 62100.00000 0 -14219409.994 -18766478.586 -9765982.542 10 0 59548 63000.00000 0 -13246258.639 -17772796.998 -12582432.168 10 0 59548 63900.00000 0 -11933367.469 -16659337.616 -15153897.603 10 0 59548 64800.00000 0 -10288921.496 -15487099.792 -17430278.271 10 0 59548 65700.00000 0 -8334111.900 -14316065.758 -19367226.094 10 0 59548 66600.00000 0 -6102506.564 -13202617.128 -20927016.355 10 0 59548 67500.00000 0 -3638902.462 -12197122.648 -22079287.165 10 0 59548 68400.00000 0 -997707.175 -11341799.533 -22801632.863 10 0 59548 69300.00000 0 1759083.203 -10668938.859 -23080039.812 10 0 59548 70200.00000 0 4564225.589 -10199569.764 -22909156.340 10 0 59548 71100.00000 0 7347793.306 -9942618.367 -22292391.926 10 0 59548 72000.00000 0 10039854.496 -9894596.209 -21241844.152 10 0 59548 72900.00000 0 12573154.101 -10039830.396 -19778055.339 10 0 59548 73800.00000 0 14885687.936 -10351224.719 -17929604.085 10 0 59548 74700.00000 0 16923061.991 -10791518.481 -15732540.179 10 0 59548 75600.00000 0 18640539.328 -11314988.766 -13229674.374 10 0 59548 76500.00000 0 20004690.202 -11869523.222 -10469737.296 10 0 59548 77400.00000 0 20994577.656 -12398974.834 -7506424.424 10 0 59548 78300.00000 0 21602430.652 -12845698.442 -4397346.192 10 0 59548 79200.00000 0 21833778.204 -13153161.203 -1202904.104 10 0 59548 80100.00000 0 21707040.727 -13268516.324 2014884.790 10 0 59548 81000.00000 0 21252597.535 -13145031.179 5193591.875 10 0 59548 81900.00000 0 20511371.263 -12744267.241 8271585.886 10 0 59548 82800.00000 0 19532990.065 -12037920.035 11189223.197 10 0 59548 83700.00000 0 18373605.769 -11009241.708 13889996.702 10 0 59548 84600.00000 0 17093460.207 -9653986.431 16321621.581 10 0 59548 85500.00000 0 15754301.996 -7980838.915 18437037.587 99